Theta_e
272 272 272 273 273 272 272 273 272 272 272 272 271 271 271 272 272 272 272 271 272 271 271 270 270 270 270 270 270 270 270 270 270 270 269 269 269 269 269 269 268 268 269 270 271 272 273 274 275 277 278 278 280 282 284 285 285 285 285 285 285 285 284 283 281 281 284 283 283 279 279 280 279 281 280 281 281 282 285 283 283 283 284 285 285
271 271 272 272 272 273 273 273 273 272 272 271 271 271 271 271 272 271 271 271 271 271 271 270 270 270 270 270 270 270 270 270 270 270 269 268 268 269 268 268 268 268 268 268 269 270 271 271 272 275 277 277 278 279 281 282 284 285 285 285 285 285 285 283 282 282 281 284 284 281 278 280 279 281 280 280 281 281 281 282 282 281 282 283 283
271 271 271 271 272 273 274 274 274 273 271 271 271 271 271 271 271 271 271 271 271 271 271 270 269 269 269 268 269 269 269 269 269 269 268 268 268 268 268 268 268 267 267 267 268 269 269 269 270 273 275 276 277 278 279 279 281 283 285 285 285 285 285 285 283 282 281 282 285 284 281 279 280 281 281 281 282 281 281 281 281 281 281 281 282
270 270 270 270 271 272 273 273 273 272 271 271 270 271 271 270 270 270 270 270 270 270 270 270 269 269 268 268 268 268 268 268 268 268 268 268 267 267 267 267 267 267 267 267 267 268 267 268 270 272 274 274 276 277 278 278 279 280 283 285 285 285 285 285 285 283 283 282 284 284 285 282 279 280 281 282 281 281 281 281 282 281 281 280 280
270 270 270 270 270 271 272 272 272 271 271 271 270 270 270 270 270 269 270 269 269 269 269 269 269 268 268 268 268 268 267 267 267 267 267 267 266 266 266 266 266 266 267 267 268 268 268 269 270 272 272 273 275 275 276 276 277 279 280 282 284 285 285 285 285 285 284 283 283 285 286 284 282 280 280 280 280 281 281 281 281 281 281 280 279
269 269 269 269 270 271 271 271 271 272 272 271 271 271 271 270 269 270 269 269 269 269 269 268 268 268 268 268 268 267 267 267 266 266 266 266 265 265 264 265 265 265 266 267 268 269 269 270 271 272 273 272 272 272 274 275 277 278 279 280 282 284 285 285 285 285 284 284 284 284 285 285 281 279 280 281 280 279 280 280 281 281 281 280 279
268 268 269 269 269 270 270 270 271 270 271 271 271 271 271 270 270 269 269 269 268 268 267 267 268 268 268 268 267 267 267 266 265 265 265 265 264 264 264 264 265 265 266 267 269 270 270 270 271 272 272 271 271 272 274 275 276 277 278 279 280 281 283 284 285 284 284 283 284 284 284 285 284 281 279 281 281 281 280 279 278 280 280 280 279
268 268 268 268 268 269 270 269 269 269 270 270 270 270 270 269 269 268 268 267 267 267 267 267 267 266 267 266 267 266 265 265 264 264 264 263 263 263 264 264 265 266 267 267 268 268 269 270 270 270 270 271 271 273 274 275 276 276 278 280 280 281 281 282 284 284 283 283 283 283 284 284 282 282 280 279 279 279 281 280 279 279 278 280 280
267 267 267 268 268 269 270 270 270 270 270 270 270 269 269 268 268 267 267 267 267 266 267 267 266 265 264 264 264 264 264 264 264 264 263 263 262 263 264 265 265 266 267 267 267 268 268 269 270 270 271 272 274 274 275 275 274 274 275 277 278 278 279 280 282 283 283 283 282 283 283 283 283 281 278 277 277 278 280 281 281 282 280 279 280
267 267 268 269 270 269 269 269 269 269 269 269 268 267 267 266 266 266 266 266 265 266 265 265 264 264 264 264 263 263 263 263 265 267 269 267 266 266 266 267 267 266 267 267 267 268 268 269 270 272 272 272 273 274 274 274 275 275 275 276 277 278 278 278 279 281 282 282 282 282 281 281 283 282 281 280 280 281 279 279 279 280 279 278 278
267 268 269 269 269 268 268 267 267 266 266 266 266 265 266 266 265 265 265 265 265 265 265 264 264 264 264 263 263 264 263 263 267 271 272 273 271 269 269 268 268 267 268 268 268 268 268 269 270 271 272 272 272 272 273 273 274 275 275 276 277 277 277 277 278 280 281 282 283 283 282 282 282 283 282 282 281 280 280 280 280 280 277 276 276
268 268 268 268 267 267 267 268 266 266 265 265 265 265 265 264 264 265 265 265 265 265 264 264 263 263 263 263 263 263 263 266 270 271 272 273 272 270 269 269 269 269 269 268 268 268 268 268 270 271 271 271 271 272 273 273 273 274 275 276 276 277 279 278 278 278 279 280 281 282 283 282 283 283 282 282 281 280 280 280 280 279 278 277 278
267 267 267 267 266 266 267 266 265 265 264 264 264 264 263 263 263 263 263 264 265 265 265 265 264 263 262 262 262 263 262 266 270 271 272 272 273 271 269 269 269 268 268 268 267 267 267 268 268 269 269 271 272 272 271 272 273 273 274 274 275 277 278 279 281 280 281 280 281 282 283 283 283 283 283 283 283 281 280 280 280 280 279 279 279
265 266 266 265 265 267 265 265 264 263 263 263 263 263 262 262 263 263 264 264 264 264 264 264 264 263 262 262 262 262 262 264 269 271 271 272 272 272 269 268 268 268 267 267 266 267 267 268 269 270 270 270 270 270 270 270 270 270 271 272 273 275 277 279 280 281 282 281 281 281 283 285 284 284 284 284 282 281 281 280 280 280 280 280 282
264 264 264 265 266 265 264 263 262 262 262 262 262 262 262 262 262 262 263 263 263 262 262 262 262 262 262 261 261 261 262 266 269 270 271 271 272 271 267 267 267 266 266 266 266 266 267 267 268 268 269 269 270 270 269 269 269 270 270 271 273 275 277 278 280 281 282 282 282 282 283 284 285 285 285 284 283 283 283 282 282 281 281 276 273
263 263 263 264 263 263 262 262 262 262 261 261 260 261 261 261 261 261 262 262 262 262 262 261 261 261 261 260 261 261 261 267 269 269 270 270 271 267 267 266 266 266 265 266 267 268 269 269 269 269 269 269 270 271 271 271 271 270 271 272 274 275 276 279 281 282 282 283 283 284 284 285 286 285 284 283 283 283 281 279 280 280 277 276 276
263 263 262 262 262 261 262 262 262 261 260 259 259 259 260 260 260 260 260 261 261 262 262 263 263 261 261 260 260 260 261 264 268 269 269 270 269 266 265 265 265 265 265 266 266 266 266 267 267 268 268 267 269 272 273 272 271 271 272 272 274 274 276 278 280 282 283 284 285 285 286 286 287 287 287 285 283 282 279 278 277 278 277 276 274
262 262 261 261 261 261 262 263 260 259 258 258 258 259 259 259 259 260 260 261 261 262 263 262 261 261 260 260 260 260 260 262 265 268 268 269 268 265 265 264 264 265 265 266 267 267 267 268 268 268 267 267 270 272 273 273 271 271 272 272 272 273 274 276 278 279 282 283 284 285 285 285 286 286 286 285 284 282 279 277 277 278 277 277 274
261 260 260 261 261 261 263 261 259 257 257 258 257 257 258 258 259 260 260 261 261 261 261 260 260 260 260 260 261 261 260 260 263 266 268 268 267 265 265 264 263 264 264 264 264 264 265 266 267 267 267 268 271 273 274 272 271 272 272 272 272 272 273 275 276 277 279 280 281 282 283 284 284 284 283 284 282 281 280 280 279 277 276 277 274
261 259 260 260 261 262 261 260 258 257 257 257 257 257 257 258 258 258 259 259 260 260 260 259 258 258 259 259 259 259 258 258 260 265 267 268 268 265 265 264 263 264 264 265 265 266 266 266 267 268 270 271 272 273 274 275 272 272 272 272 271 272 274 275 276 277 278 279 280 281 281 282 282 282 282 282 281 280 280 280 279 278 277 277 273
260 260 260 260 261 262 260 257 257 257 256 256 257 257 257 257 257 257 257 258 259 258 258 257 257 257 257 258 258 258 258 258 258 264 266 267 268 267 264 264 264 264 264 264 264 264 265 265 266 267 269 271 271 273 274 274 274 272 272 272 272 274 276 274 275 277 277 278 279 279 279 280 280 280 280 279 279 279 278 278 279 279 278 276 273
259 259 259 260 261 261 258 257 257 257 256 256 255 256 256 256 256 256 257 257 257 257 256 256 256 256 256 257 257 257 258 259 258 261 264 266 267 268 265 265 265 265 264 264 264 264 263 264 264 266 268 270 271 273 274 274 274 273 273 275 276 277 275 275 275 275 276 277 277 277 277 277 277 277 277 276 275 275 275 274 274 273 273 275 276
258 259 259 259 259 258 257 256 256 256 256 256 255 255 255 255 255 256 256 256 256 255 255 255 254 254 255 256 256 257 257 258 260 259 262 265 267 268 268 266 268 267 265 264 265 266 266 265 265 267 269 271 272 273 273 273 273 272 275 276 276 276 276 274 272 273 274 274 274 274 274 275 274 273 273 271 271 270 269 269 269 269 268 268 268
258 258 258 258 258 257 257 256 256 255 255 255 255 254 255 255 255 256 256 255 255 255 255 254 254 254 254 255 256 256 257 257 259 260 260 263 265 267 268 268 269 266 266 265 265 265 265 265 265 269 271 272 272 272 272 271 270 272 272 273 274 274 271 270 271 271 272 272 272 272 271 272 272 270 268 268 267 266 266 266 266 265 265 264 265
257 257 257 257 256 256 256 255 255 255 255 254 254 254 254 254 255 256 256 255 254 254 254 254 254 254 254 254 255 256 257 257 257 259 261 261 264 266 267 268 267 267 265 265 265 265 267 269 270 271 271 271 269 268 267 267 268 267 267 268 269 269 269 269 269 270 269 269 269 268 268 268 268 268 268 267 267 267 265 264 264 264 264 264 263
256 256 255 255 255 255 254 254 254 255 255 255 254 254 254 254 255 255 255 255 254 254 254 254 254 254 254 254 255 255 256 257 257 258 259 260 261 263 265 265 265 266 266 266 266 267 269 270 269 267 266 266 264 264 264 265 265 265 265 265 263 265 267 268 268 267 266 266 266 264 265 267 266 267 267 267 266 265 266 265 266 265 266 265 263
255 255 254 255 254 254 254 254 254 254 254 255 254 254 254 254 254 254 254 254 254 254 254 254 254 254 254 254 255 256 256 257 257 257 258 258 257 259 259 260 263 265 263 262 263 263 265 265 265 266 265 265 264 264 263 262 262 262 262 262 262 263 264 264 265 265 264 264 264 263 265 266 267 267 266 266 266 266 267 266 265 264 264 264 262
255 254 254 255 255 255 254 255 256 254 254 254 254 254 254 254 253 253 253 254 254 254 254 255 255 255 255 255 256 256 257 257 257 258 259 260 259 259 260 260 260 258 259 259 259 261 262 263 262 261 261 261 261 260 260 260 260 260 261 261 260 261 264 266 265 263 264 264 264 264 264 264 264 264 264 264 264 264 265 265 264 263 263 263 261
255 254 254 254 254 255 254 254 254 253 253 253 253 254 254 254 254 255 255 255 255 255 255 256 258 258 258 258 257 258 258 259 260 263 263 265 265 264 263 262 260 259 262 264 261 259 259 259 259 260 259 258 258 258 258 259 259 259 259 260 259 260 260 262 262 262 262 263 263 262 262 262 261 262 262 261 261 262 263 263 263 262 262 263 261
254 254 254 253 253 253 254 254 253 254 253 253 253 254 257 258 258 257 256 259 260 261 261 259 260 260 260 260 260 260 259 261 264 265 266 267 266 267 267 267 266 262 264 265 262 256 256 256 256 256 257 256 256 256 256 256 257 257 258 259 258 258 258 258 259 260 261 261 262 261 261 261 261 261 260 259 259 259 261 262 260 261 260 259 256
254 254 254 252 254 254 254 253 253 252 253 253 252 252 252 255 258 259 259 259 259 260 261 262 263 262 261 260 261 262 262 262 264 265 266 267 267 266 267 267 267 267 266 263 257 255 256 256 256 254 255 254 255 254 255 255 256 256 256 257 256 257 257 257 257 259 259 260 260 260 261 261 260 260 259 258 257 258 258 259 259 259 258 257 256
253 253 252 251 253 254 252 252 252 252 252 251 251 251 251 251 252 256 258 258 258 259 260 261 262 262 262 261 260 260 261 262 262 264 265 266 265 265 266 267 267 267 267 266 258 256 255 256 255 255 255 255 255 255 255 254 254 254 255 255 255 255 255 255 256 258 259 259 259 259 259 259 258 258 258 257 257 257 257 257 257 256 255 255 254
253 252 251 252 252 253 252 251 251 251 250 251 251 250 250 250 250 251 254 257 257 257 258 259 261 261 261 261 262 261 261 261 262 264 264 263 263 265 266 267 266 266 265 260 256 256 255 256 254 254 255 254 254 254 254 254 254 254 254 254 253 253 254 255 257 257 257 257 257 257 257 257 257 257 257 257 256 255 255 254 254 254 253 252 251
252 251 251 251 251 251 250 250 250 250 250 249 250 250 251 250 250 250 250 251 252 254 256 257 258 259 259 259 259 260 261 261 261 261 261 262 265 265 264 264 265 264 262 256 257 256 255 254 254 254 253 253 253 254 254 253 253 253 253 253 252 252 253 255 255 255 255 255 255 256 256 256 257 256 255 255 255 254 254 254 254 254 253 252 251
250 252 255 254 250 250 250 250 249 249 249 249 249 249 249 250 251 250 250 249 249 250 250 253 256 257 257 257 258 259 259 259 260 260 261 264 264 262 263 256 254 254 254 253 254 254 254 255 254 253 252 252 253 254 254 253 254 253 253 253 252 253 253 253 253 254 254 254 254 254 255 255 255 255 255 255 254 253 253 253 253 252 251 250 249
248 248 247 250 250 248 248 249 249 249 248 248 249 250 250 250 250 249 250 250 250 249 250 251 252 255 257 257 258 258 258 259 259 260 262 262 261 260 254 253 253 253 253 252 252 252 253 253 252 251 251 252 252 253 254 254 253 253 253 253 253 252 252 252 252 252 252 252 252 253 253 253 253 254 254 253 253 252 251 251 251 250 251 250 250
247 247 247 247 247 247 247 247 246 247 251 251 250 249 249 249 249 249 249 249 249 250 250 251 251 251 254 254 256 257 257 257 259 259 260 259 258 254 251 252 253 253 253 252 251 252 252 251 251 251 251 252 252 252 252 252 252 252 253 252 252 252 251 251 251 251 252 251 251 251 252 252 253 253 253 250 250 250 250 250 249 249 249 249 248
247 248 247 247 246 246 246 247 248 251 250 249 248 247 248 248 248 249 249 249 250 250 250 249 251 250 250 251 255 255 255 257 257 256 256 255 252 250 250 250 251 252 253 252 252 253 252 250 249 250 250 251 251 251 251 251 251 251 251 250 251 251 253 251 250 250 250 249 249 249 249 249 250 251 251 250 249 249 249 249 249 248 248 248 248
245 250 253 253 252 248 247 248 249 248 248 248 247 247 248 248 248 248 248 248 248 248 248 247 247 248 249 251 251 253 254 252 250 251 252 251 249 248 247 248 249 250 250 251 251 251 251 251 249 248 249 249 250 250 250 250 250 250 250 251 251 250 250 249 250 249 249 248 247 248 248 248 248 250 250 250 249 249 249 248 248 248 247 246 245
247 245 247 251 249 249 249 249 248 248 247 247 246 247 247 247 247 247 247 246 246 247 246 247 248 248 249 250 251 253 252 253 252 252 251 251 250 249 248 248 248 249 250 249 249 250 250 249 249 249 248 248 249 248 248 249 250 250 250 251 250 249 248 248 249 249 247 247 247 247 247 247 247 248 248 249 248 248 248 247 247 247 246 244 244
244 244 249 250 250 248 248 248 247 246 246 246 247 246 246 248 248 248 246 246 246 246 247 247 247 247 249 252 254 254 253 253 252 250 251 251 250 249 249 248 248 248 248 248 248 248 249 248 248 247 247 247 247 248 248 248 248 249 249 248 248 247 246 246 247 246 246 246 246 245 246 247 247 248 246 246 248 247 246 246 245 245 245 244 244
244 244 245 246 248 247 246 247 247 247 246 246 246 246 247 247 246 245 246 246 247 247 246 246 246 247 250 252 253 254 253 252 251 250 250 250 249 250 249 249 248 248 248 248 247 247 247 247 247 247 247 247 247 246 247 248 248 249 248 248 247 247 246 246 246 246 246 246 245 245 245 245 246 246 246 247 245 246 246 245 245 245 244 244 244
245 245 246 247 246 246 246 246 245 244 245 245 245 247 247 246 244 246 245 246 246 246 246 246 246 247 248 250 251 252 251 250 250 251 250 250 250 249 249 249 249 248 247 246 246 247 248 248 247 247 247 247 247 248 248 248 248 248 247 247 247 246 245 244 245 245 245 245 245 245 246 246 246 245 245 245 245 245 245 245 244 244 244 244 244
246 246 246 246 246 245 246 244 244 245 245 247 247 246 246 245 244 243 244 242 244 244 245 245 246 246 247 248 249 248 248 249 250 250 250 250 250 250 250 249 248 247 245 245 245 246 247 247 246 245 245 245 245 245 247 247 248 248 247 247 246 246 245 245 245 245 246 245 245 245 244 244 245 245 244 244 245 245 244 244 243 243 243 242 243
244 245 245 244 244 243 244 244 244 244 246 245 242 242 244 243 242 243 243 243 244 244 244 245 245 245 246 246 246 247 247 248 250 250 250 250 250 250 249 248 248 247 246 245 245 246 246 246 246 245 244 243 244 245 245 246 246 248 248 248 247 246 246 246 246 246 246 246 245 244 244 244 244 244 244 244 244 244 244 243 243 243 242 242 242
245 245 245 245 244 245 244 243 245 243 243 242 242 241 241 241 241 241 243 243 244 244 243 244 244 245 245 245 246 247 247 248 249 249 250 250 250 250 249 248 248 247 246 246 245 245 245 246 247 246 245 243 243 243 244 244 245 245 245 246 248 247 247 246 245 245 246 246 245 245 244 244 243 244 244 243 243 244 243 242 242 243 242 241 241
244 244 244 244 243 244 244 245 243 243 242 242 242 241 241 242 241 243 244 244 244 244 243 243 242 243 244 244 245 246 247 247 248 249 249 250 250 250 249 247 247 246 245 245 245 245 245 246 246 246 245 243 243 243 243 243 244 244 244 245 245 245 245 245 245 246 246 246 245 245 244 244 243 243 243 243 243 242 242 242 242 241 241 241 241
244 244 243 244 243 243 243 241 242 245 243 242 241 242 242 242 241 242 241 242 241 242 241 242 242 242 244 244 245 246 246 247 247 248 249 250 250 249 248 247 247 247 246 246 245 245 245 245 245 245 244 244 244 243 243 243 243 244 243 243 244 244 245 245 244 244 245 245 245 245 244 243 243 242 242 242 242 242 242 241 240 240 241 241 240
243 243 243 242 242 242 242 242 242 241 240 240 240 241 240 240 240 240 240 240 240 241 239 240 240 242 243 244 245 245 246 246 246 247 248 249 250 249 248 248 247 247 247 246 245 245 245 244 245 245 245 244 244 243 243 243 243 243 242 243 244 245 245 245 244 244 245 245 244 244 244 243 243 242 242 242 242 241 241 240 241 241 240 240 240
242 243 242 242 242 242 241 241 239 238 239 239 239 238 239 240 239 239 240 239 239 239 239 240 241 240 241 243 244 245 245 245 246 246 247 248 249 250 249 248 248 248 248 247 246 245 245 244 245 245 245 244 244 243 244 243 243 243 242 244 245 245 245 245 245 245 244 243 244 244 244 243 242 241 241 241 240 240 241 240 240 241 240 240 238
243 242 242 241 241 241 240 238 238 238 237 238 237 237 238 238 238 238 238 237 237 238 239 238 238 239 240 241 242 244 244 245 246 246 246 247 248 249 249 249 248 248 247 247 246 245 245 245 245 244 244 244 244 244 243 243 243 243 244 245 245 245 245 245 244 244 244 244 243 243 243 242 241 240 240 240 240 241 241 241 240 240 239 239 238
Wind_Speed
11 12 12 13 12 11 9 7 7 6 5 5 5 6 5 5 5 6 4 4 6 4 5 4 4 3 3 2 3 2 2 1 1 2 3 4 3 3 5 6 8 8 8 10 8 8 8 10 10 9 10 9 9 10 10 8 8 8 8 9 10 10 11 11 14 17 9 5 6 4 4 5 5 8 9 8 8 9 9 11 9 10 11 12 11
11 13 12 13 13 11 10 8 7 6 6 6 6 6 5 5 5 4 5 6 4 6 6 5 4 4 4 4 3 3 2 2 2 1 2 3 5 4 5 6 8 8 8 9 10 8 8 10 11 10 9 9 10 10 10 11 10 8 8 9 10 10 10 11 13 14 16 6 9 4 4 7 7 6 9 9 9 7 9 10 9 10 11 10 10
10 11 12 13 14 12 11 10 9 8 7 6 6 6 5 5 4 5 6 6 5 5 6 5 5 4 4 4 4 3 3 2 2 2 2 3 4 4 4 6 7 8 8 9 10 9 10 9 10 10 9 10 10 9 10 11 12 12 11 9 10 11 11 12 11 14 15 12 9 9 7 7 10 9 9 8 8 8 10 11 10 8 8 9 10
10 11 12 14 14 13 12 11 10 10 9 7 7 6 5 4 4 5 6 6 7 6 5 5 5 5 5 5 4 4 4 3 3 2 3 3 4 5 5 5 6 8 8 8 8 8 9 10 11 11 10 11 11 9 8 9 10 12 13 11 10 11 11 10 13 13 13 12 9 11 9 8 7 6 7 8 9 9 10 9 8 9 9 8 9
10 12 12 14 14 12 11 10 10 10 10 8 7 5 4 5 4 5 6 6 6 6 6 5 5 5 6 6 5 5 5 5 5 4 3 3 4 4 6 6 6 7 8 8 8 8 9 10 11 8 10 12 11 10 9 11 11 11 11 12 11 10 9 10 11 12 13 14 11 9 8 8 8 8 7 8 6 7 6 8 8 9 8 8 8
9 11 12 12 12 12 11 11 11 11 9 7 6 6 5 5 6 6 6 8 7 6 6 5 5 6 6 6 6 6 6 5 6 5 5 4 5 5 4 6 6 6 6 8 7 8 10 11 11 12 10 9 12 12 12 12 11 10 10 12 10 12 13 11 11 12 13 14 13 11 8 9 7 7 9 9 8 7 6 7 6 7 8 8 8
9 10 11 11 11 10 11 10 9 7 6 6 5 5 6 6 7 7 7 7 7 7 6 5 6 6 7 6 6 7 7 6 5 5 5 5 5 5 5 6 7 6 6 7 7 8 10 11 12 11 11 10 12 12 10 11 11 12 12 12 11 13 13 13 11 12 13 13 12 11 11 9 9 9 7 9 10 10 10 8 8 9 9 10 9
9 10 10 10 10 10 9 7 6 6 6 6 6 6 6 6 7 7 6 7 7 6 6 6 7 5 7 6 7 5 5 5 5 5 5 5 6 6 7 8 9 8 7 7 7 8 9 10 11 12 12 13 12 13 12 11 9 12 10 9 9 12 12 12 13 13 12 12 12 11 10 10 7 6 3 7 7 8 10 12 14 11 9 8 8
9 9 10 9 10 9 7 6 6 5 6 6 6 6 7 6 6 6 6 6 6 6 6 6 7 7 5 5 6 5 6 7 5 5 6 7 6 7 9 9 9 9 9 9 8 9 9 10 11 12 15 19 22 20 18 17 12 11 11 10 12 12 13 12 12 13 12 12 12 10 10 10 10 9 8 9 13 15 11 8 8 7 8 8 8
8 9 9 9 8 6 6 6 6 6 6 7 6 6 5 6 6 6 7 6 6 6 7 7 6 6 7 6 5 5 6 6 7 12 13 10 8 8 8 8 8 8 10 11 11 9 10 11 12 20 22 22 23 24 23 22 22 17 13 11 11 11 12 12 13 13 13 13 12 11 12 12 11 12 12 13 12 9 6 9 12 10 5 6 3
7 9 9 8 8 8 8 7 5 5 4 4 5 6 7 7 7 7 8 7 8 8 7 7 7 6 6 7 7 7 6 5 11 17 20 23 17 12 11 10 10 10 10 12 12 12 10 11 11 15 18 18 18 25 26 25 23 25 26 25 20 16 14 15 15 14 14 14 12 12 12 13 14 12 13 12 10 11 11 11 12 7 9 10 12
8 9 10 8 8 9 10 7 4 4 5 7 7 7 7 7 8 8 8 9 8 7 8 8 7 6 6 6 7 7 7 8 16 20 22 23 21 14 11 11 10 10 10 10 10 10 11 13 12 9 9 13 15 14 16 21 24 25 23 24 26 27 25 19 16 15 16 14 14 14 12 13 13 12 11 11 11 10 11 10 11 12 11 12 10
9 10 8 7 8 12 7 6 8 8 7 7 7 7 7 8 8 8 9 9 8 9 9 7 7 6 6 8 8 8 7 10 17 21 22 23 24 20 12 12 11 11 11 10 11 11 11 11 13 13 15 25 19 13 13 15 18 22 24 27 27 27 26 27 27 21 16 17 16 15 14 11 13 12 11 13 11 12 10 10 10 11 13 14 13
8 9 8 8 11 7 6 8 8 7 6 5 6 6 7 8 8 8 9 8 8 8 7 9 9 8 8 8 9 7 7 8 18 22 23 25 25 22 14 13 12 12 11 10 10 11 11 11 10 10 8 8 10 13 14 14 14 14 14 14 14 19 23 26 28 31 26 19 17 18 14 13 13 10 11 11 13 13 13 14 13 13 13 14 11
8 8 8 8 7 6 9 9 9 6 5 5 6 7 8 9 9 9 9 9 9 9 9 9 9 9 8 7 7 8 6 13 21 24 24 25 25 22 13 12 11 11 11 11 12 13 15 16 16 17 15 13 9 11 12 13 14 13 13 15 15 15 14 14 14 14 16 16 17 19 18 15 13 12 9 11 15 14 15 16 16 15 10 3 7
9 8 7 6 6 8 9 9 8 5 5 5 6 7 8 8 10 9 9 9 8 8 8 7 9 8 7 6 8 10 8 17 22 23 24 23 25 15 11 10 10 11 12 12 12 12 12 12 10 10 10 12 13 22 21 15 14 16 17 17 15 14 14 16 21 22 19 17 16 16 16 16 17 13 10 10 11 12 8 1 3 6 8 9 11
9 8 6 4 6 7 8 8 7 4 4 5 6 7 8 9 9 8 9 9 9 9 9 8 6 6 8 8 10 10 9 14 21 22 22 24 20 12 10 9 10 12 13 13 13 13 13 14 15 14 14 13 16 25 26 24 16 16 16 16 16 15 14 13 19 24 28 30 30 28 27 30 25 24 20 20 15 11 8 10 10 10 12 12 8
9 6 5 5 7 7 9 7 4 5 4 5 6 7 7 7 8 8 9 11 10 9 8 8 7 8 8 9 9 10 10 10 19 22 24 25 22 14 10 9 10 12 11 10 9 10 10 18 18 14 13 14 21 27 27 22 16 16 17 18 20 16 14 13 11 13 22 27 30 29 26 29 25 21 19 19 20 16 13 14 12 12 13 12 11
8 5 5 7 7 8 7 4 4 5 5 6 6 7 7 8 8 8 9 9 10 9 8 8 8 7 7 9 13 14 10 11 17 22 24 24 19 11 10 9 10 10 10 11 10 12 13 15 22 22 18 19 27 26 27 22 17 16 15 15 16 17 15 14 13 13 13 13 14 16 17 19 16 15 14 20 20 18 14 14 11 12 12 12 9
6 4 5 7 7 8 4 4 5 5 7 6 6 7 7 7 8 8 8 8 8 8 7 8 9 8 8 8 9 9 10 10 11 22 23 23 23 14 9 10 9 10 10 10 10 9 11 11 13 19 27 27 26 27 26 27 19 15 13 13 13 15 13 13 11 11 14 15 13 12 11 10 11 10 10 13 14 15 13 10 10 12 13 11 10
4 4 5 7 8 7 3 4 6 6 6 6 6 6 6 7 8 8 8 8 8 8 8 8 8 9 8 8 8 9 8 10 12 21 23 23 23 20 10 10 10 10 9 10 10 10 9 9 7 13 20 24 25 26 26 26 23 15 13 12 12 14 15 9 11 15 14 15 12 10 9 8 8 8 8 9 9 8 6 6 8 9 10 10 11
4 4 6 8 9 6 5 5 5 6 6 6 7 8 7 7 8 8 7 7 8 9 8 8 8 8 8 8 8 10 9 12 11 16 21 22 21 23 13 10 11 11 11 11 11 11 11 11 10 13 20 25 26 25 26 24 24 14 13 19 23 26 18 11 10 9 10 10 9 8 8 7 7 6 6 6 6 6 6 6 6 7 5 2 9
5 5 6 8 8 7 6 6 7 5 6 6 6 8 8 7 8 8 8 7 8 9 8 7 7 8 8 8 8 8 9 10 14 13 17 22 21 21 22 17 21 15 11 11 10 9 8 9 12 18 21 24 25 25 25 23 12 8 17 21 24 24 17 8 7 8 9 8 7 7 7 7 7 7 7 6 5 7 8 6 8 10 11 11 13
5 5 6 7 8 7 7 7 7 6 6 6 6 7 8 8 7 7 7 7 7 8 7 6 6 7 9 9 9 8 8 8 11 16 14 20 21 22 21 22 22 12 8 7 8 9 8 9 10 17 21 23 25 25 18 4 6 12 12 12 10 7 2 4 5 6 7 7 7 7 6 5 7 8 10 6 6 7 7 8 10 12 13 11 12
5 6 6 7 7 7 7 7 7 6 6 5 6 7 7 6 7 7 6 7 7 7 8 6 7 7 8 9 9 9 9 9 9 12 17 17 20 20 20 20 17 16 9 7 9 10 13 17 20 22 21 13 6 7 6 7 9 10 10 11 8 4 3 1 4 4 5 5 5 5 6 6 9 10 11 9 10 11 12 7 10 11 14 16 14
6 7 7 6 7 7 7 7 7 7 7 6 6 6 7 7 7 7 7 7 7 7 8 7 7 7 8 8 9 9 9 9 10 10 9 10 11 16 19 17 15 14 12 8 12 17 15 8 3 11 9 7 5 4 4 4 8 9 9 10 5 5 4 3 4 2 3 2 5 10 9 8 10 9 10 10 11 9 11 10 10 8 9 11 13
7 6 7 7 6 6 6 6 6 6 6 6 6 6 6 6 6 7 7 7 7 7 8 7 7 7 7 8 8 9 9 9 9 8 8 7 7 8 8 8 10 9 6 5 5 5 8 8 6 7 6 7 6 5 4 6 6 6 5 5 5 5 5 3 3 1 3 5 6 8 8 8 8 9 8 9 9 7 8 10 10 8 10 10 14
7 7 8 6 6 6 6 7 7 5 6 6 7 7 6 6 6 7 7 7 8 8 8 8 8 7 7 8 8 8 9 8 7 7 10 9 8 7 7 7 6 6 5 5 4 3 3 4 5 4 4 4 4 4 4 4 5 5 4 5 6 6 5 7 8 5 4 3 5 5 6 7 8 7 8 8 8 6 5 9 11 9 9 11 12
7 7 6 6 7 6 5 5 5 6 6 6 6 7 7 7 7 8 7 7 8 8 8 9 9 7 7 8 8 9 9 8 7 10 14 16 13 8 8 8 7 6 6 7 3 2 3 4 4 4 4 4 3 4 4 4 3 4 6 6 6 6 5 5 5 4 4 3 5 6 6 8 8 8 9 10 9 7 5 9 8 10 5 9 12
6 6 5 5 6 5 4 5 5 6 6 7 7 7 8 11 9 8 8 12 18 19 17 12 10 9 8 7 8 10 8 7 16 22 21 23 22 16 10 9 8 7 6 6 1 1 1 2 2 2 3 3 3 3 4 4 4 5 5 6 6 5 6 6 6 5 4 4 4 6 6 7 8 8 9 11 9 7 5 7 7 8 11 11 14
6 5 5 5 6 5 4 5 5 6 6 7 6 7 7 6 11 16 15 16 17 19 20 22 22 20 13 10 9 14 17 19 20 20 21 21 21 19 12 7 8 12 9 4 1 1 0 1 1 2 1 1 2 2 3 2 3 4 4 4 5 5 4 8 7 4 3 5 5 5 5 7 7 7 9 9 11 7 7 7 8 8 11 11 13
6 6 5 4 5 5 5 5 5 6 6 6 6 6 6 9 9 8 12 14 15 18 21 21 21 19 18 15 12 9 13 16 17 18 20 18 18 19 16 15 11 5 7 7 2 0 0 0 1 1 0 1 1 1 2 2 2 2 1 3 4 4 4 5 5 5 3 4 5 4 5 6 7 7 8 8 8 8 8 9 9 10 9 9 10
6 5 4 4 4 6 5 5 5 5 6 7 6 5 6 7 10 12 9 10 14 16 18 19 18 16 16 16 17 16 15 16 17 17 16 15 16 16 13 8 11 10 8 4 1 1 1 1 2 1 0 1 0 0 2 2 2 2 2 2 2 3 4 4 4 5 5 4 5 5 5 6 7 7 6 6 8 10 9 9 9 9 11 16 11
5 4 3 4 5 5 5 5 5 5 5 5 5 6 6 7 8 9 11 12 9 8 10 15 16 15 15 16 16 17 16 16 15 15 15 14 16 10 8 6 6 6 5 0 1 3 2 3 3 1 0 0 1 2 1 2 2 1 2 3 2 2 3 4 6 5 6 5 6 5 5 5 5 8 7 8 7 8 9 8 9 10 9 9 10
4 4 6 6 3 5 5 5 5 5 5 5 6 6 7 7 7 8 8 9 11 11 8 7 10 13 11 11 13 15 15 14 14 14 14 14 9 8 6 5 4 2 4 2 1 2 3 4 4 2 1 1 1 3 3 1 1 2 2 2 2 3 4 5 6 5 7 7 8 6 4 5 6 5 7 8 8 9 8 8 7 9 10 9 9
3 4 3 5 5 5 5 5 5 5 5 6 6 6 7 7 8 8 8 8 9 9 9 7 7 7 14 13 15 15 14 14 14 14 13 11 10 8 3 4 2 3 2 1 1 1 1 3 3 2 2 1 1 2 3 2 1 2 1 2 3 3 4 4 4 5 5 6 6 5 5 6 5 6 7 8 8 9 7 8 8 7 9 9 8
4 4 4 4 4 4 5 4 4 5 6 7 7 6 7 7 8 7 8 7 8 7 7 7 6 6 6 6 9 12 15 14 14 13 11 9 8 4 0 1 3 3 4 3 3 2 2 2 1 3 3 4 2 2 3 3 2 3 3 3 2 4 4 4 4 4 5 5 5 5 5 5 5 5 8 9 7 7 7 8 8 8 8 10 9
4 5 5 5 4 4 4 5 5 7 7 6 5 5 6 6 6 6 7 7 7 7 7 6 6 6 7 7 9 7 9 12 11 9 7 6 5 4 3 2 2 2 3 2 2 4 4 2 2 3 3 3 4 3 3 3 3 3 4 4 4 4 5 6 5 6 6 5 5 5 5 5 5 5 7 9 8 8 7 7 9 9 8 7 8
4 6 7 7 5 4 4 4 6 5 6 6 5 6 7 7 6 6 6 5 5 6 7 6 6 6 6 6 7 8 9 6 5 5 6 5 3 2 2 3 3 2 0 1 2 1 2 3 2 1 2 3 3 3 3 4 3 4 3 5 5 4 4 5 5 5 5 5 5 4 5 5 4 5 6 8 8 8 8 8 8 9 9 8 7
4 4 4 6 5 5 5 6 5 6 7 6 6 5 5 6 6 6 5 5 6 6 5 6 6 6 7 7 7 7 7 7 5 4 5 5 5 4 2 3 4 4 3 2 2 2 2 2 2 2 2 2 3 3 3 4 4 4 3 3 5 5 4 4 5 5 5 4 5 4 5 5 5 6 6 6 7 7 8 8 7 7 8 9 8
4 4 4 4 5 4 4 5 6 5 5 5 6 6 5 6 5 6 5 6 6 5 6 6 6 6 7 10 15 14 8 6 5 5 5 5 5 5 4 3 3 4 4 3 2 2 2 3 3 3 3 3 3 4 4 4 4 4 4 4 4 5 4 4 4 6 5 5 5 5 5 5 5 7 8 6 6 7 7 8 8 8 8 8 9
5 4 4 4 4 3 4 6 7 7 5 6 5 5 6 6 5 5 6 5 6 6 6 5 5 6 9 17 15 16 9 5 5 6 5 5 5 5 4 4 3 3 4 3 3 3 3 3 4 4 4 4 4 4 4 4 4 4 5 5 5 5 5 5 4 5 6 6 5 5 5 5 6 7 7 6 7 7 8 8 8 8 8 8 8
4 4 4 4 3 4 5 5 5 5 5 5 5 5 5 5 5 6 5 6 5 6 5 6 5 5 7 11 13 14 7 6 5 5 5 5 5 5 5 4 4 3 2 2 2 2 3 3 3 3 3 4 4 5 5 5 5 5 5 5 5 6 6 5 5 5 5 6 6 5 6 6 7 7 7 6 7 7 8 8 8 8 8 8 8
4 4 5 4 4 3 5 4 5 5 5 6 5 5 5 5 4 4 5 4 5 5 5 5 5 6 6 8 8 7 6 6 5 5 5 5 5 5 4 4 4 3 2 1 1 1 3 4 4 3 3 3 2 2 3 4 5 6 6 6 6 6 5 6 6 6 6 7 6 6 6 6 7 7 7 6 8 9 8 8 8 8 8 8 8
3 3 5 5 4 4 5 4 4 5 6 5 3 4 6 4 5 5 4 5 5 5 6 5 5 5 7 6 6 6 6 6 7 6 5 5 5 5 4 4 3 3 2 1 0 1 2 4 4 4 4 2 3 3 3 3 2 3 5 7 7 6 6 7 6 6 6 8 7 7 6 7 7 7 7 6 7 8 8 8 8 7 8 7 8
3 4 6 4 5 6 5 5 6 4 3 4 5 5 5 5 6 5 5 4 5 5 5 5 5 5 6 6 6 7 6 6 6 6 6 5 4 4 4 3 3 2 1 1 1 1 2 3 4 4 4 4 3 3 4 3 3 3 3 2 4 5 5 5 6 6 6 7 8 7 7 7 6 6 7 7 6 7 8 7 6 7 8 7 8
3 4 5 5 4 6 5 5 4 4 3 5 4 4 4 6 5 4 5 5 5 6 5 5 5 5 5 5 6 6 6 6 6 6 6 6 5 4 4 2 1 1 0 1 1 1 2 3 3 4 5 4 3 4 4 3 4 4 3 4 5 6 6 5 5 5 6 6 7 8 7 8 7 7 7 8 7 7 8 7 8 8 7 7 8
4 5 4 5 4 4 4 4 4 5 4 5 4 5 5 5 4 4 4 4 4 5 4 5 5 5 5 5 5 5 6 6 6 6 6 6 5 4 3 1 1 0 1 1 1 2 2 2 3 4 5 4 4 4 4 3 3 4 3 4 4 6 8 7 6 6 5 6 7 8 9 8 7 7 7 8 8 8 8 7 7 7 7 7 8
3 5 4 3 4 4 5 4 5 4 4 4 3 5 5 5 4 3 4 4 3 4 3 4 5 5 5 5 5 5 5 6 6 6 6 6 5 4 1 0 0 1 1 1 2 2 2 2 3 3 4 4 4 5 4 4 4 4 4 4 6 9 11 10 7 7 7 7 7 7 8 8 9 7 7 8 8 7 8 7 7 8 7 7 8
4 4 3 3 4 4 5 4 3 4 5 4 4 4 3 4 3 4 5 3 3 4 4 4 4 5 5 5 6 6 5 5 6 6 6 6 6 4 1 1 1 1 1 1 2 2 2 2 3 3 4 4 4 4 4 4 4 4 4 6 10 11 10 11 12 12 9 6 7 7 8 8 8 7 7 8 8 9 9 8 7 8 8 8 7
5 3 3 2 3 4 3 4 4 4 3 5 4 4 4 4 4 4 4 4 4 4 4 4 6 5 4 5 5 5 5 5 5 5 5 6 6 5 3 1 1 1 1 2 2 2 2 3 3 3 3 4 4 4 4 4 4 5 7 10 10 11 12 11 9 9 11 9 8 8 9 10 9 9 8 7 7 8 9 9 8 8 7 7 7
Wind_Direction
328 325 323 317 309 286 271 266 260 251 251 243 245 251 251 252 255 255 273 271 259 258 246 246 254 252 259 263 271 273 252 251 286 313 329 321 321 318 329 331 325 322 319 319 319 317 314 313 310 309 311 310 309 311 309 288 257 240 233 230 228 223 222 229 240 255 249 207 238 196 195 179 214 216 219 214 215 216 216 223 218 216 218 219 220
328 324 322 317 310 297 280 273 268 263 255 249 246 250 251 254 258 265 257 259 252 255 257 253 243 244 253 261 256 258 266 273 275 225 294 308 318 317 323 323 323 319 320 315 316 314 311 311 308 307 303 304 306 306 309 310 296 264 244 233 233 232 218 227 237 246 259 216 245 207 213 178 220 193 212 213 218 208 217 219 215 214 221 220 217
319 318 316 316 313 307 297 291 286 274 261 254 249 250 249 254 256 259 263 265 258 247 249 247 247 247 247 252 265 265 252 247 263 286 277 288 293 303 303 313 315 316 317 311 312 311 307 303 302 306 308 305 302 301 308 306 305 295 273 246 239 236 229 222 232 244 250 246 232 241 216 205 214 212 200 215 212 201 214 220 216 216 222 218 217
315 314 313 310 309 305 302 298 292 284 272 262 256 251 255 259 260 259 261 264 266 261 250 249 247 243 247 254 250 253 260 265 262 239 260 273 292 289 299 299 302 304 302 303 304 303 297 298 299 299 304 301 298 300 302 302 300 300 293 273 249 244 236 227 227 240 247 254 225 230 225 223 228 224 187 200 199 201 209 219 215 219 218 220 224
311 311 309 307 305 301 300 300 295 288 277 271 265 270 277 283 284 276 276 273 264 264 260 246 249 247 248 249 251 248 247 251 259 266 257 257 257 273 281 283 284 288 286 286 292 292 291 289 289 295 299 294 300 305 304 300 300 298 298 296 278 253 239 233 233 234 243 245 246 229 227 222 219 210 184 187 199 208 205 208 210 218 217 216 216
306 306 306 303 301 306 311 308 301 293 291 295 300 300 298 296 295 294 287 283 280 262 256 256 242 250 247 249 247 245 241 239 247 252 255 260 266 264 263 269 271 268 271 273 272 287 291 291 291 287 280 297 301 298 293 291 290 285 284 285 285 277 256 238 231 236 239 245 243 244 221 225 215 210 194 196 187 196 208 214 215 212 212 215 216
304 301 300 298 300 304 306 306 312 318 318 310 301 295 304 305 304 297 294 288 281 273 264 260 259 254 258 253 252 250 250 241 237 243 251 253 259 269 271 272 270 260 253 257 268 277 278 280 281 284 292 291 284 283 285 285 281 279 280 282 284 285 278 258 240 234 237 241 241 237 238 227 219 220 202 192 199 197 198 198 218 217 213 210 213
299 298 297 298 297 297 301 308 306 303 304 303 303 305 306 306 301 297 296 291 283 275 271 269 269 264 263 261 260 261 261 262 253 248 247 250 258 263 265 270 272 266 257 259 270 273 274 278 280 282 282 279 272 269 268 278 287 291 291 286 285 285 282 273 255 243 239 238 239 237 228 233 220 228 150 169 193 218 210 201 212 210 207 210 209
295 296 297 296 295 295 296 298 297 294 301 303 305 307 308 306 303 300 299 294 288 283 282 283 286 284 275 265 268 265 266 265 263 261 266 268 249 255 261 258 256 267 275 275 271 270 270 269 269 269 270 275 275 274 275 277 281 284 281 280 282 280 282 283 273 254 242 238 240 232 233 228 221 205 194 189 199 210 206 202 229 222 198 201 207
289 295 293 292 295 298 302 303 301 306 310 318 321 320 316 311 310 309 304 295 287 284 283 280 275 272 275 273 262 257 251 252 255 257 261 265 259 256 257 257 260 268 277 280 276 271 271 271 269 273 275 276 276 274 274 275 275 272 275 280 281 278 274 274 274 267 253 243 237 234 229 228 223 212 210 210 210 208 171 183 212 210 165 198 212
283 286 294 307 313 315 311 301 305 315 320 324 325 320 316 313 308 303 296 289 287 285 281 278 268 263 266 269 273 268 258 247 254 268 280 283 284 280 277 277 271 267 266 272 277 279 279 275 275 274 274 275 277 277 275 274 272 273 272 271 272 273 278 273 269 270 267 252 244 237 232 230 226 216 214 212 207 202 198 196 205 181 179 181 211
286 298 302 306 313 316 305 298 314 329 335 324 320 315 311 309 305 302 301 300 295 288 280 273 270 273 274 274 273 273 271 265 277 286 287 286 285 283 281 278 276 271 267 267 271 275 280 281 274 264 264 271 268 265 268 272 273 273 273 275 275 273 269 267 268 266 264 263 252 243 238 232 231 219 215 209 207 203 206 200 197 191 188 204 208
300 297 298 305 314 301 299 337 331 324 318 314 314 315 312 310 308 307 303 297 293 290 284 285 285 280 274 276 274 272 268 270 281 287 289 288 286 285 280 276 275 274 270 269 272 274 274 276 280 273 268 267 265 262 269 273 272 273 274 276 275 272 271 270 266 260 260 261 263 254 240 236 234 226 210 212 197 206 198 205 203 201 201 203 209
291 291 296 303 297 295 326 319 316 310 308 310 312 311 310 305 303 300 296 294 289 289 290 287 286 279 272 270 272 270 271 266 281 287 287 286 285 285 282 281 278 275 273 272 271 272 270 267 264 265 265 272 278 274 271 271 271 271 271 271 270 270 270 268 269 264 256 252 254 257 252 241 238 231 216 202 198 203 201 208 203 205 204 214 213
287 285 289 290 291 313 317 317 307 300 296 307 309 305 305 302 301 300 297 297 296 291 291 288 282 278 273 270 274 278 276 282 288 288 287 287 286 287 287 286 282 275 272 268 266 266 270 270 265 263 260 254 250 262 267 266 265 266 269 269 269 267 263 262 260 258 253 246 246 250 252 248 245 238 216 202 203 206 203 204 201 204 197 80 51
284 281 279 283 300 306 302 294 287 279 296 305 306 304 303 300 301 300 297 294 289 287 283 274 275 272 274 280 286 285 280 285 289 288 288 289 290 290 283 275 272 270 270 266 262 259 260 263 267 274 276 278 275 275 272 265 260 263 266 266 263 262 260 261 264 263 256 249 245 245 245 243 238 233 214 199 204 210 202 162 174 171 153 181 188
281 274 271 284 292 291 285 282 276 288 299 300 299 300 301 301 299 298 295 290 287 283 278 278 280 285 289 287 283 282 279 283 286 289 291 292 293 287 276 264 259 257 256 256 258 259 260 265 268 269 270 267 267 272 272 268 262 262 263 264 264 264 263 265 267 269 265 256 248 245 244 245 237 231 220 203 198 187 165 182 189 170 184 195 187
276 268 271 286 288 282 277 272 279 286 290 288 291 293 294 292 291 294 292 295 292 290 294 294 291 286 284 281 277 280 281 277 284 289 292 292 289 284 279 276 271 273 274 271 275 276 271 268 269 267 267 268 271 270 268 265 262 261 260 260 262 263 265 266 267 266 264 259 252 246 241 243 234 219 198 193 190 184 180 197 189 183 195 193 185
270 264 280 287 286 281 270 264 276 280 280 281 283 290 292 292 293 293 289 290 290 295 293 289 286 282 277 277 283 283 280 279 282 287 289 289 287 276 270 261 262 258 258 258 250 253 255 258 259 259 258 261 266 268 266 262 260 261 265 261 253 254 257 261 264 267 262 253 245 244 245 235 220 207 202 192 182 184 192 198 182 186 188 194 171
256 263 280 285 283 276 260 274 276 276 278 280 280 280 285 290 291 290 288 286 285 286 286 285 286 284 283 280 278 274 276 276 276 285 288 288 287 284 276 269 264 266 265 265 260 248 248 250 256 260 267 266 268 269 265 260 258 262 274 283 276 258 254 255 258 260 260 250 239 226 217 205 205 202 194 189 186 185 190 192 184 185 191 181 167
255 269 282 287 283 267 262 270 278 278 271 273 277 283 283 286 289 288 286 284 282 285 284 283 282 283 282 279 278 276 271 276 276 284 289 289 288 286 278 271 268 265 264 265 263 266 266 265 258 256 263 267 270 271 269 264 263 264 269 271 269 266 257 256 260 257 255 248 228 213 198 194 187 186 180 178 175 173 166 171 181 190 185 171 170
258 272 283 287 285 275 274 276 270 271 273 277 285 285 283 282 282 281 278 278 284 286 286 284 283 285 285 282 280 279 277 271 275 277 285 290 290 287 283 274 273 268 267 260 260 255 251 254 253 253 255 262 267 268 270 269 267 271 273 273 272 267 256 250 249 252 248 239 221 198 188 173 170 157 145 137 128 121 108 95 83 73 56 124 171
259 269 280 284 279 277 281 284 282 273 270 269 275 281 284 285 283 282 280 281 282 283 282 282 285 287 288 285 281 279 278 278 274 274 279 288 291 289 285 282 279 280 277 274 277 277 257 246 252 256 255 262 269 266 266 275 289 283 276 273 267 256 252 238 231 237 231 221 198 184 172 160 139 131 122 103 74 76 73 72 80 84 75 60 52
256 267 274 277 278 279 283 285 280 273 269 273 274 278 282 279 279 278 278 282 286 285 284 283 284 285 288 289 289 285 282 278 278 278 278 283 288 289 289 287 287 288 293 305 303 290 269 244 237 246 253 259 264 270 271 320 338 322 334 338 330 288 212 230 227 225 218 199 186 163 148 129 117 106 92 86 90 87 80 77 79 79 82 73 61
260 267 270 270 271 274 280 280 279 278 277 276 283 282 282 282 285 282 281 282 280 281 281 279 277 281 283 285 288 290 290 286 283 280 279 280 286 288 290 293 299 306 306 305 303 286 271 250 239 251 263 277 13 32 28 3 1 338 347 351 345 319 328 311 269 227 201 188 162 132 109 105 118 116 113 105 104 96 90 68 78 84 88 82 72
266 268 270 269 265 268 275 279 277 275 276 276 272 271 275 284 282 286 284 281 278 277 281 278 274 274 277 279 283 285 289 290 287 286 284 283 282 283 287 293 294 296 302 306 319 338 325 289 33 63 49 37 10 23 12 351 355 348 9 4 357 345 339 342 302 242 164 161 133 125 117 114 105 113 115 111 106 110 111 106 102 92 88 88 76
267 271 272 271 269 267 269 270 274 272 270 275 274 275 274 270 273 280 282 283 282 280 277 275 273 272 273 277 280 285 288 288 287 288 289 284 275 275 281 279 284 288 298 302 315 324 351 12 24 36 57 40 28 8 24 4 10 340 17 5 355 353 340 350 337 21 100 107 101 87 103 111 111 106 110 108 103 102 110 112 102 100 93 91 91
266 268 268 270 276 273 269 266 266 271 271 273 281 282 270 258 265 270 277 278 280 279 276 273 271 266 270 277 280 283 287 285 281 291 299 294 284 274 259 261 266 260 264 277 270 317 333 358 9 355 0 32 11 350 353 15 18 335 355 30 9 352 0 56 55 32 45 60 82 84 85 96 99 101 95 92 96 88 98 110 113 108 110 111 86
267 270 272 276 275 270 264 261 267 272 275 271 263 257 270 272 267 270 254 236 243 256 260 267 266 264 269 272 280 285 283 281 287 298 297 304 302 270 251 252 247 237 249 244 250 335 9 15 10 2 9 5 8 350 338 347 7 358 355 26 24 3 357 31 62 36 3 33 78 90 94 91 86 89 99 88 78 85 85 97 94 107 85 90 103
271 269 267 267 267 265 269 273 276 279 280 286 288 283 258 267 279 285 292 293 294 294 293 288 286 280 280 284 281 280 288 301 300 298 302 308 323 316 315 301 224 221 230 265 198 95 45 62 33 28 1 358 5 358 343 340 3 16 9 25 32 3 346 28 28 26 20 33 56 86 91 96 94 95 96 92 75 66 50 92 98 107 106 105 94
270 272 275 271 270 272 273 279 280 280 284 288 288 287 294 277 279 288 291 293 295 298 299 296 293 291 290 290 293 301 304 302 299 297 298 306 325 333 329 320 254 238 232 199 54 45 45 53 354 19 357 355 349 343 339 350 18 35 33 21 31 12 360 18 7 15 33 57 50 56 74 93 99 99 101 98 94 90 77 65 85 89 103 111 105
267 269 267 266 276 280 273 274 284 289 290 288 286 289 293 302 297 279 284 290 291 296 299 298 294 292 293 297 302 302 298 294 295 296 296 307 320 322 331 323 342 8 236 174 120 64 33 45 328 357 360 346 318 334 7 16 14 17 356 43 27 4 360 20 357 360 20 58 71 63 72 82 90 92 95 97 96 93 95 88 89 92 86 81 89
260 267 261 264 265 275 286 286 287 288 291 293 292 292 296 298 302 307 296 284 290 296 299 299 298 300 302 304 305 303 302 299 297 297 308 315 308 311 326 357 33 30 60 71 100 206 258 237 242 259 203 204 188 24 30 33 17 5 13 56 60 7 11 1 31 55 38 32 72 77 78 89 92 88 84 90 97 95 89 93 91 92 99 91 75
248 237 245 256 266 278 281 282 285 282 278 280 282 291 288 290 292 293 304 312 306 294 298 301 301 303 302 303 305 305 305 306 307 310 308 303 296 321 331 335 353 58 67 138 155 238 239 264 256 252 231 151 143 112 64 58 44 56 50 54 59 42 36 38 56 40 37 41 47 70 78 85 98 100 89 80 81 94 96 101 107 105 98 103 107
235 250 269 282 276 276 279 283 282 283 284 284 288 288 286 286 285 294 299 300 304 309 314 302 297 297 300 303 304 307 309 308 312 311 304 295 319 351 339 15 351 351 14 39 100 186 213 229 235 225 192 196 198 141 133 117 89 91 97 85 59 54 57 60 60 48 46 46 43 28 65 83 80 89 108 110 104 99 103 102 96 110 115 112 111
240 250 259 275 280 272 272 273 274 282 287 283 274 275 284 293 296 294 290 289 291 294 294 291 285 288 299 305 309 312 312 316 314 309 307 321 346 356 352 319 319 284 281 276 166 189 228 219 181 186 171 149 140 115 123 131 97 99 62 69 77 70 75 75 74 73 66 65 56 81 82 70 83 95 83 75 93 104 107 108 109 105 112 114 111
247 262 270 266 262 266 268 270 275 279 285 289 293 297 292 289 289 287 285 285 286 282 287 299 307 301 300 295 303 313 316 315 313 314 316 333 359 35 198 247 257 269 243 222 185 158 177 213 180 151 157 146 124 121 119 116 122 108 84 66 65 76 69 80 77 80 86 78 64 69 81 87 83 90 107 104 92 96 102 104 103 103 106 113 112
246 254 261 261 265 272 287 287 279 292 294 292 290 289 291 287 282 282 284 286 290 302 312 311 312 312 312 304 318 312 309 310 313 315 324 346 5 358 336 312 285 252 247 215 203 180 168 168 161 168 168 145 146 138 126 125 125 117 111 100 89 90 94 82 73 75 78 78 75 72 78 72 77 94 100 111 120 115 109 112 115 109 101 101 107
263 263 270 284 292 286 281 289 294 298 297 297 297 295 294 291 288 286 286 286 301 303 300 304 304 304 305 307 312 308 310 306 312 305 309 309 303 291 296 301 309 307 294 199 191 179 165 169 165 123 143 135 134 137 137 135 125 118 124 115 100 96 93 96 91 86 84 88 79 70 81 77 69 74 99 110 110 115 114 113 115 120 120 107 92
268 269 274 276 276 284 286 286 295 296 297 303 296 291 290 292 290 287 294 306 302 300 300 301 304 302 305 310 301 303 303 302 299 302 304 302 306 304 299 288 286 274 268 245 212 196 198 171 147 155 141 139 129 125 122 125 124 126 119 111 124 107 87 99 113 108 107 105 99 88 92 91 86 85 78 86 108 113 117 115 110 105 110 112 109
254 256 260 263 269 277 291 293 291 288 290 291 291 291 285 287 295 308 307 298 298 298 299 297 296 300 304 310 313 313 309 312 319 315 298 293 291 293 288 266 258 269 267 257 247 213 190 165 162 141 130 126 122 122 126 124 126 124 114 106 97 103 97 83 94 106 107 103 102 99 94 94 100 103 97 91 91 96 96 105 102 104 106 111 115
265 262 260 264 272 275 280 284 283 292 296 292 289 282 283 299 306 304 304 304 302 301 300 300 300 300 310 317 319 320 320 314 310 301 299 292 287 280 271 267 243 238 249 237 213 193 184 164 161 155 147 145 133 125 122 128 135 128 127 122 120 118 110 104 99 108 110 106 102 102 99 97 94 92 105 112 108 108 105 103 110 113 114 114 117
262 254 253 262 268 271 275 278 290 294 289 285 278 285 301 305 305 303 304 302 302 304 302 307 307 312 313 319 323 325 317 305 301 300 295 295 291 283 275 268 258 233 229 250 254 213 164 157 152 157 154 160 161 160 158 155 149 134 126 127 129 129 126 123 115 107 106 105 104 101 103 101 102 104 109 107 108 106 109 112 110 110 112 115 117
262 264 265 267 273 279 281 284 285 279 278 279 289 306 305 300 299 302 300 301 302 303 306 305 309 317 315 319 324 325 316 315 310 308 302 300 295 289 280 275 273 271 265 286 279 189 141 132 122 102 81 94 96 108 120 141 145 143 138 131 130 134 139 142 143 143 136 123 118 113 106 104 106 110 110 115 115 110 108 107 109 111 112 110 112
272 274 275 281 278 278 281 279 275 278 277 288 301 298 299 302 299 294 299 298 307 311 308 312 316 316 318 318 320 317 314 314 312 308 308 303 300 294 292 286 276 269 266 288 241 164 131 127 131 125 115 87 67 96 106 109 109 135 147 144 141 151 165 166 158 147 137 127 125 120 120 118 116 112 112 112 114 115 113 118 118 112 108 112 114
273 278 284 281 284 284 286 281 276 279 282 288 289 293 290 291 290 288 289 303 308 308 310 313 313 313 314 314 313 315 315 314 315 313 307 303 300 298 294 285 278 268 232 174 175 159 147 145 140 130 123 117 105 92 93 93 89 90 98 101 127 135 134 127 133 133 133 128 126 123 116 107 103 111 115 112 104 104 109 106 104 109 115 117 114
281 282 281 279 279 280 284 284 289 280 279 289 293 293 292 288 284 283 299 308 309 313 315 310 316 315 314 316 316 314 316 317 315 318 313 309 306 300 299 295 302 302 37 95 123 117 125 113 110 118 120 120 112 102 96 86 90 85 79 93 106 112 120 129 131 129 121 118 121 119 118 116 115 111 104 102 102 105 107 108 117 117 115 120 124
280 279 275 275 279 284 280 282 279 288 296 297 295 290 290 295 294 296 300 304 310 307 309 314 314 309 318 317 319 320 317 315 314 315 318 319 317 313 309 297 259 194 84 89 78 81 84 103 110 112 120 123 119 114 105 95 87 87 82 83 103 118 123 119 105 99 106 113 110 116 118 117 116 115 116 115 116 119 113 113 110 110 116 116 116
288 281 277 277 274 271 278 282 290 293 289 286 290 293 294 294 292 296 300 301 298 299 303 303 305 312 316 314 316 321 320 323 321 324 325 325 328 328 327 339 82 117 137 102 87 79 86 92 103 115 121 120 121 122 121 114 108 97 98 98 109 117 120 116 113 113 111 104 103 102 106 111 117 116 115 114 115 112 114 117 118 118 113 113 116
293 288 281 277 275 277 276 276 281 286 287 284 281 281 285 290 296 297 299 302 302 303 305 307 311 311 309 313 320 321 326 327 327 325 324 324 329 332 340 24 68 60 75 90 95 82 90 93 103 106 110 110 115 115 121 121 118 116 113 119 124 121 118 117 118 120 117 113 116 116 116 113 111 112 113 118 118 118 119 122 121 121 121 122 123
291 288 283 280 281 281 281 280 280 274 272 278 280 278 283 285 282 285 290 288 285 289 295 301 303 309 313 304 305 313 316 318 321 323 327 328 332 333 340 9 60 70 74 80 83 79 92 104 107 108 110 113 112 117 117 121 121 125 125 127 123 124 124 122 118 119 117 116 115 119 119 122 121 118 118 119 120 119 124 123 121 122 124 125 127